SCP
0 0 0 0 0 0 0 0 0 0 0 0 0 0 0 0 0 0 0 0 0 0 0 0 0 0 0 0 0 0 0 0 0 0 0 0 0 0 0 0 0 0 0 0
0 0 0 0 0 0 0 0 0 0 0 0 0 0 0 0 0 0 0 0 0 0 0 0 0 0 0 0 0 0 0 0 0 0 0 0 0 0 0 0 0 0 0 0
0 0 0 0 0 0 0 0 0 0 0 0 0 0 0 0 0 0 0 0 0 0 0 0 0 0 0 0 0 0 0 0 0 0 0 0 0 0 0 0 0 0 0 0
0 0 0 0 0 0 0 0 0 0 0 0 0 0 0 0 0 0 0 0 0 0 0 0 0 0 0 0 0 0 0 0 0 0 0 0 0 0 0 0 0 0 0 0
0 0 0 0 0 0 0 0 0 0 0 0 0 0 0 0 0 0 0 0 0 0 0 0 0 0 0 0 0 0 0 0 0 0 0 0 0 0 0 0 0 0 0 0
0 0 0 0 0 0 0 0 0 0 0 0 0 0 0 0 0 0 0 0 0 0 0 0 0 0 0 0 0 0 0 0 0 0 0 0 0 0 0 0 0 0 0 0
0 0 0 0 0 0 0 0 0 0 0 0 0 0 0 0 0 0 0 0 0 0 0 0 0 0 0 0 0 0 0 0 0 0 0 0 0 0 0 0 0 0 0 0
0 0 0 0 0 0 0 0 0 0 0 0 0 0 0 0 0 0 0 0 0 0 0 0 0 0 0 0 0 0 0 0 0 0 0 0 0 0 0 0 0 0 0 0
0 0 0 0 0 0 0 0 0 0 0 0 0 0 0 0 0 0 0 0 0 0 0 0 0 0 0 0 0 0 0 0 0 0 0 0 0 0 0 0 0 0 0 0
-0 -0 0 0 0 0 0 0 0 0 0 0 0 0 0 0 0 0 0 0 0 0 0 0 0 0 0 0 0 0 0 0 0 0 0 0 0 0 0 0 0 0 0 0
0 -0 -0 -0 -0 -0 0 0 0 0 0 0 0 0 0 0 0 0 0 0 0 0 0 0 0 0 0 0 0 0 0 0 0 0 0 0 0 0 0 0 0 0 0 0
0 0 -0 -0 -0 -0 -0 -0 0 0 0 0 0 0 0 0 0 0 0 0 0 0 0 0 0 0 0 0 0 0 0 0 0 0 0 0 0 0 0 0 0 0 0 0
0 0 -0 -0 -0 -0 -0 -0 -0 0 0 0 0 0 0 0 0 0 0 0 0 0 0 0 0 0 0 0 0 0 0 0 0 0 0 0 0 0 0 0 0 0 0 0
0 0 0 0 -0 -0 -0 -0 0 0 0 0 0 0 0 0 0 0 0 0 0 0 0 0 0 0 0 0 0 0 0 0 0 0 0 0 0 0 0 0 0 0 0 0
0 0 0 0 0 0 0 0 0 0 0 0 0 0 0 0 0 0 0 0 0 0 0 0 0 0 0 0 0 0 0 0 0 0 0 0 0 0 0 0 0 0 0 0
0 0 0 0 0 0 0 0 0 0 0 0 0 0 0 0 0 0 0 0 0 0 0 0 0 0 0 0 0 0 0 0 0 0 0 0 0 0 0 0 0 0 0 0
0 0 0 0 0 0 0 0 0 0 0 0 0 0 0 0 0 0 0 0 0 0 0 0 0 0 0 0 0 0 0 0 0 0 0 0 0 0 0 0 0 0 0 0
0 0 0 0 0 0 0 0 0 0 0 0 0 0 0 0 0 0 0 0 0 0 0 0 0 0 0 0 0 0 0 0 0 0 0 0 0 0 0 0 0 0 0 0
0 0 0 0 0 0 0 0 0 0 0 0 0 0 0 0 0 0 0 0 0 0 0 0 0 0 0 0 0 0 0 0 0 0 0 0 0 0 0 0 0 0 0 0
0 0 0 0 0 0 0 0 0 0 0 0 0 0 0 0 0 0 0 0 0 0 0 0 0 0 0 0 0 0 0 0 0 0 0 0 0 0 0 0 0 0 0 0
0 0 0 0 0 0 0 0 0 0 0 0 0 0 0 0 0 0 0 0 0 0 0 0 0 0 0 0 0 0 0 0 0 0 0 0 0 0 0 0 0 0 0 0
0 0 0 0 0 0 0 0 0 0 0 0 0 0 0 0 0 0 0 0 0 0 0 0 0 0 0 0 0 0 0 0 0 0 0 0 0 0 0 0 0 0 0 0
0 0 0 0 0 0 0 0 0 0 0 0 0 0 0 0 0 0 0 0 0 0 0 0 0 0 0 0 0 0 0 0 0 0 0 0 0 0 0 0 0 0 0 0
0 0 0 0 0 0 0 0 0 0 0 0 -0 0 0 0 0 0 0 0 0 0 0 0 0 0 0 0 0 0 0 0 0 0 0 0 0 0 0 0 0 0 0 0
0 0 0 0 0 0 0 0 0 0 0 0 0 0 0 0 0 0 0 0 0 0 0 0 0 0 0 0 0 0 0 0 0 0 0 0 0 0 0 0 0 0 0 0
0 0 0 0 0 0 0 0 0 0 0 0 0 0 0 0 0 0 0 0 0 0 0 0 0 0 0 0 0 0 0 0 0 0 0 0 0 0 0 0 0 0 0 0
0 0 0 0 0 0 0 0 0 0 0 0 0 0 0 0 0 0 0 0 0 0 0 0 0 0 0 0 0 0 0 0 0 0 0 0 0 0 0 0 0 0 0 0
Wind_Speed
7 7 7 7 7 7 8 8 9 9 7 7 4 1 1 3 4 5 6 6 7 8 7 8 7 7 6 6 6 6 5 4 3 3 3 1 1 1 1 2 3 2 1 1
9 8 9 9 9 9 10 10 10 9 8 6 3 1 1 2 3 4 5 6 7 9 9 9 8 7 7 6 6 6 6 5 4 3 3 2 1 0 1 1 2 3 2 2
10 10 10 9 7 7 7 7 7 7 5 4 4 3 2 2 3 3 4 5 6 7 8 9 9 9 8 7 7 6 6 6 5 4 3 3 2 1 1 1 0 2 1 1
9 10 10 4 1 2 4 5 5 5 4 4 4 3 2 1 2 3 3 4 5 5 6 7 8 9 9 8 7 7 6 6 6 4 4 3 2 1 1 1 1 1 1 0
7 9 9 5 2 2 3 5 4 3 4 3 4 4 1 2 1 1 3 3 4 4 4 5 7 8 9 9 8 7 6 6 6 5 4 3 3 2 1 1 1 1 1 1
8 10 8 3 3 2 3 4 3 3 3 3 3 3 2 2 1 2 3 3 3 3 3 4 5 7 7 8 8 8 7 6 6 6 5 4 3 2 2 1 1 2 2 1
9 11 6 3 2 1 3 3 5 6 6 5 4 4 4 4 2 2 2 3 3 3 3 4 5 6 7 7 7 7 7 6 6 6 6 5 4 3 2 2 1 2 2 1
7 9 4 4 2 3 4 5 6 6 6 7 6 6 5 4 2 0 2 3 4 4 3 4 5 5 6 6 6 7 7 6 6 6 5 5 4 3 2 2 2 2 2 1
5 3 3 4 5 5 6 6 6 6 6 6 7 6 5 3 2 1 2 3 4 4 4 4 4 5 6 5 6 7 7 7 6 6 5 4 4 3 2 1 1 1 1 0
9 5 4 5 5 5 5 5 6 6 6 6 7 7 6 5 3 2 2 3 4 5 5 5 5 5 5 6 6 7 7 7 6 6 5 4 3 2 2 1 1 0 0 0
12 9 7 5 5 6 6 7 7 7 7 7 7 7 7 6 5 3 2 3 4 5 5 6 5 6 5 6 7 7 8 7 7 6 5 5 4 2 3 2 2 1 1 1
10 9 10 8 8 10 9 8 9 9 9 8 8 7 7 6 5 3 3 3 4 5 5 6 6 6 6 7 7 7 7 6 5 5 5 5 5 4 4 4 5 5 4 4
11 10 10 11 11 11 10 10 10 10 10 9 8 7 7 6 5 4 3 4 5 5 5 5 6 6 6 7 7 6 6 5 5 5 6 6 6 6 5 3 4 4 4 4
10 10 12 11 11 11 12 11 11 11 10 9 8 7 7 7 6 5 4 4 4 5 5 5 5 6 6 7 6 6 5 5 5 5 5 5 6 6 6 6 5 3 2 3
9 9 10 10 10 11 11 11 11 10 10 9 8 7 7 7 6 5 4 3 3 4 4 4 5 5 5 5 6 6 5 4 4 4 4 4 4 5 5 6 5 5 4 3
9 10 10 10 10 10 11 11 11 10 10 9 8 8 8 8 7 6 4 3 3 4 4 4 5 4 4 4 5 4 4 6 5 4 4 4 4 4 4 4 5 5 5 4
8 9 9 10 10 10 10 10 10 10 10 9 9 9 8 8 7 5 4 3 4 4 4 4 4 4 4 4 4 4 4 5 7 4 4 4 4 4 4 4 4 5 4 4
7 7 8 10 10 10 9 9 9 9 9 10 10 9 8 8 7 6 5 4 3 3 3 3 4 4 4 5 4 3 3 4 4 4 3 3 3 3 4 4 5 6 4 5
7 8 9 9 9 9 8 8 8 8 9 9 9 9 8 8 7 6 6 5 4 4 3 2 4 4 4 5 5 3 4 4 4 3 3 5 4 4 4 5 5 5 6 5
7 8 8 9 9 9 9 8 8 8 8 8 9 9 8 8 7 6 5 4 3 2 2 2 4 4 4 4 4 3 4 4 4 4 4 4 4 4 4 5 5 5 5 5
8 8 8 8 8 9 8 9 8 8 8 8 8 8 9 8 7 6 4 4 2 1 2 4 4 3 4 4 4 3 4 4 4 4 4 4 4 4 4 5 5 5 5 5
8 8 9 8 8 9 8 8 8 8 8 8 8 8 8 7 6 6 5 3 2 2 2 3 3 4 5 5 3 3 3 3 4 4 4 4 4 4 4 5 4 4 4 4
8 8 9 9 8 9 9 9 9 8 8 8 8 8 8 6 4 4 4 2 2 3 2 2 3 6 7 4 3 3 3 3 3 4 4 4 4 4 4 5 4 4 4 4
8 9 10 10 9 9 9 8 8 7 8 8 8 8 7 5 4 3 2 1 3 4 2 4 7 8 7 3 3 4 4 4 4 3 4 4 4 4 4 4 5 5 4 5
9 9 10 10 8 6 7 8 8 7 7 6 7 8 6 4 3 3 1 1 3 4 3 5 9 9 5 3 3 4 4 4 4 4 4 4 4 4 4 4 4 4 4 4
9 7 7 7 6 5 5 5 5 5 6 5 5 5 5 4 3 2 0 1 2 3 3 3 4 6 4 3 3 4 4 5 5 4 4 4 5 4 4 4 5 4 4 4
9 7 5 5 5 4 5 5 5 5 5 5 4 4 4 4 3 2 1 0 1 2 2 3 3 3 3 3 4 4 4 4 5 5 5 4 4 4 4 5 4 4 4 4
Wind_Direction
271 274 278 272 269 266 266 272 279 292 302 312 316 294 201 177 177 177 177 177 170 168 173 172 180 179 173 166 164 168 166 167 169 166 152 160 285 293 31 346 339 345 27 48
286 278 275 271 261 256 257 264 270 278 285 297 313 313 253 194 182 188 187 186 183 177 175 177 181 173 165 168 171 167 166 166 161 169 154 158 223 309 45 333 327 333 11 43
292 291 283 271 273 265 262 264 267 276 288 313 314 314 287 258 188 195 196 186 185 182 180 183 181 173 170 174 171 171 167 159 160 172 158 167 194 184 215 228 297 320 356 43
285 288 277 280 299 296 288 287 286 286 306 321 320 315 293 270 190 185 182 176 179 186 180 179 174 169 169 169 169 173 167 162 164 173 166 169 183 208 238 228 185 265 294 52
278 281 278 279 282 298 298 297 310 304 308 318 318 292 289 21 81 141 158 159 165 179 174 174 170 167 168 170 171 172 169 168 167 168 165 170 184 208 231 241 227 240 234 205
269 278 282 314 11 27 307 279 354 353 348 347 336 314 8 27 52 94 115 132 144 163 171 172 168 163 169 174 172 172 169 170 164 162 166 176 184 196 211 231 241 246 241 206
256 266 275 337 353 320 280 356 28 28 18 5 353 352 351 3 36 80 117 135 147 166 176 175 166 164 177 180 176 167 162 162 158 160 169 176 175 179 202 219 241 259 259 226
260 265 282 23 359 345 3 18 20 14 8 359 351 349 349 356 9 115 144 154 164 176 181 177 172 175 184 180 164 152 154 159 161 166 177 172 164 179 198 210 228 243 246 248
299 316 26 26 8 10 3 358 359 356 357 343 331 327 326 321 307 246 183 175 176 180 181 182 182 187 187 171 154 151 156 162 167 171 171 158 160 174 189 202 215 234 217 214
296 294 322 340 346 352 353 349 343 339 336 329 319 315 314 307 293 265 206 185 182 184 189 195 191 192 182 164 160 162 168 171 172 173 166 153 147 155 149 161 202 233 73 40
294 305 309 314 326 332 331 330 330 330 326 321 315 310 307 303 293 261 221 193 191 200 202 200 191 187 177 171 173 176 178 176 174 168 158 144 131 116 138 129 150 167 142 82
283 302 303 312 334 336 324 320 323 321 317 315 309 304 301 295 292 273 233 205 209 213 211 203 193 189 182 177 181 184 184 179 171 163 158 153 147 129 74 105 110 109 104 113
297 310 310 312 316 316 314 312 311 309 306 305 306 305 304 297 292 284 255 221 219 224 219 207 194 190 182 178 187 189 180 173 167 167 167 166 164 162 156 119 86 87 106 114
305 307 300 305 309 310 307 307 307 303 301 303 304 306 305 300 295 288 272 249 228 226 224 210 194 188 183 180 185 187 177 175 171 169 170 173 173 172 168 168 168 163 147 152
305 307 307 310 310 311 311 310 306 303 305 305 307 306 304 302 298 294 287 279 245 225 218 209 198 187 178 181 182 181 174 173 174 171 170 168 169 173 173 170 164 154 147 161
311 307 306 306 307 309 309 308 307 309 311 310 311 310 307 303 299 295 287 267 244 234 220 207 197 182 177 180 175 171 171 173 167 169 171 169 173 173 171 167 160 153 155 157
310 307 309 309 307 305 305 305 304 306 309 311 310 309 307 305 300 295 289 275 253 240 219 199 182 173 181 181 172 169 168 173 175 176 178 175 170 169 165 159 148 140 143 148
305 310 312 309 307 306 306 307 308 309 309 309 309 307 304 301 297 293 289 283 269 250 226 194 170 179 189 176 168 167 170 172 178 180 172 165 160 154 146 143 141 139 142 145
313 311 310 310 310 309 308 309 311 311 308 307 305 302 300 296 292 290 287 273 254 244 231 186 177 190 190 171 159 165 175 178 177 171 157 153 157 152 149 149 146 147 150 151
306 303 302 305 308 310 309 308 307 306 306 307 307 304 301 299 298 293 282 269 247 232 210 183 188 195 181 163 159 171 175 179 177 167 157 159 162 157 151 148 148 150 150 151
304 303 301 300 303 305 304 302 302 303 307 307 305 303 302 301 299 292 278 268 257 207 189 184 192 182 165 162 175 179 174 170 166 163 162 162 160 152 147 144 144 148 149 148
305 304 304 305 305 304 303 304 304 304 306 306 305 302 300 299 298 295 280 257 240 176 171 188 189 169 160 159 182 174 164 163 160 156 155 154 152 150 149 147 145 146 145 142
302 302 299 298 298 299 302 304 306 308 306 304 301 298 294 292 286 282 277 257 193 176 181 201 181 160 158 161 167 165 158 156 154 151 150 150 150 150 148 144 140 136 134 134
296 299 298 298 297 296 297 302 304 302 303 303 301 300 296 293 289 284 279 226 181 176 192 176 164 167 168 176 168 162 157 149 143 143 144 142 140 139 139 138 137 135 134 134
290 289 289 293 294 293 296 301 303 302 299 297 302 308 308 303 290 286 270 216 184 181 176 178 176 176 180 179 167 154 145 140 138 137 135 132 130 130 131 131 132 135 140 143
283 282 282 284 286 286 289 291 289 291 293 296 301 306 312 313 310 306 266 200 195 183 175 173 177 180 184 177 163 151 143 142 141 141 140 137 135 134 136 139 140 143 145 143
284 282 279 277 272 271 276 281 281 282 284 290 298 304 309 312 310 305 293 197 187 187 178 177 178 181 179 166 159 156 153 150 149 147 146 145 145 147 149 149 147 144 141 142